Location: Buch
(49.7331°N, 12.1098°E)
Time: 14:09:04
(UTC+00:00)

USA 215 - Pass Details

Date: 12 May 2021
Orbit: 1100 x 1107 km, 123.0° (Epoch: 14 June)

Event Time Altitude Azimuth Distance (km) Brightness Sun altitude
Exits shadow 22:28:31 - 108° (ESE) 3,251 5.5 -21.3°
Reaches altitude 10° 22:29:17 10° 108° (ESE) 2,956 5.2 -21.4°
Maximum altitude 22:35:47 72° 25° (NNE) 1,153 3.4 -21.5°
Drops below altitude 10° 22:42:18 10° 303° (WNW) 2,965 6.0 -21.7°
Sets 22:44:47 0° 301° (WNW) 3,925 6.7 -21.7°
